Location: Asheville, NC
(35.6000°N, 82.5500°W)
Time: 08:53:41
(UTC-05:00)

Tiangong 2 - Pass Details

Date: 14 February 2018
Orbit: 384 x 388 km, 42.8° (Epoch: 20 February)

Event Time Altitude Azimuth Distance (km) Brightness Sun altitude
Rises 19:23:04 0° 280° (W) 2,257 6.5 -15.2°
Reaches altitude 10° 19:25:24 10° 295° (WNW) 1,403 4.8 -15.7°
Maximum altitude 19:28:02 23° 352° (N) 857 2.8 -16.2°
Enters shadow 19:28:58 20° 20° (NNE) 946 2.8 -16.4°
